Weather History for LHPA - June, 2013

Change the Weather History Date:

Thursday, June 13, 2013

  Actual Average Record
Temperature  
Mean Temperature 64 °F -  
Max Temperature 78 °F - - ()
Min Temperature 51 °F - - ()
Growing Degree Days 14 (Base 50)    
Moisture  
Dew Point 55 °F    
Average Humidity 73    
Maximum Humidity 100    
Minimum Humidity 41    
Precipitation  
Precipitation 0.00 in - - ()
Sea Level Pressure  
Sea Level Pressure 30.09 in    
Wind  
Wind Speed 3 mph ()    
Max Wind Speed 7 mph    
Max Gust Speed -    
Visibility 5.9 miles    
Events      
T = Trace of Precipitation, MM = Missing Value Source: Averaged Metar Reports

Daily Weather History Graph

Daily Weather History Graph

Search for Another Location

Airport or City:

Trip Planner

Search our weather history database for the weather conditions in past years. The results will help you decide how hot, cold, wet, or windy it might be!

Date:

Astronomy

Jun. 13, 2013 Rise Set
Actual Time 4:52 AM CEST 8:47 PM CEST
Civil Twilight 4:12 AM CEST 9:27 PM CEST
Nautical Twilight 3:17 AM CEST 10:22 PM CEST
Astronomical Twilight 1:53 AM CEST 11:47 PM CEST
Moon 9:27 AM CEST (6/13) 11:27 PM CEST (6/13)
Length of Visible Light 17h 14m
Length of Day
15h 54m
Waxing Crescent, 19% of the Moon is Illuminated
Jun 13
Waxing Crescent
Jun 16
First Quarter
Jun 23
Full
Jun 30
Last Quarter
Jul 8
New

Hourly Weather History & Observations

Time (CEST) Temp. Dew Point Humidity Pressure Visibility Wind Dir Wind Speed Gust Speed Precip Events Conditions
12:15 AM 55.4 °F 53.6 °F 94% 30.12 in - NE 2.2 mph - N/A   Clear
12:45 AM 55.4 °F 53.6 °F 94% 30.09 in - NNW 4.5 mph - N/A   Clear
1:15 AM 57.2 °F 53.6 °F 88% 30.12 in - North 2.2 mph - N/A   Clear
1:45 AM 53.6 °F 53.6 °F 100% 30.12 in - ESE 2.2 mph - N/A   Clear
2:15 AM 53.6 °F 51.8 °F 94% 30.12 in - SE 2.2 mph - N/A   Clear
2:45 AM 51.8 °F 51.8 °F 100% 30.12 in - WSW 2.2 mph - N/A   Clear
3:15 AM 51.8 °F 51.8 °F 100% 30.12 in - WNW 2.2 mph - N/A   Clear
3:45 AM - - N/A% - 3.1 mi NW 4.5 mph - N/A   Clear
4:15 AM 51.8 °F 51.8 °F 100% 30.12 in - North 2.2 mph - N/A   Clear
4:45 AM 51.8 °F 51.8 °F 100% 30.12 in - Calm Calm - N/A   Clear
5:15 AM 51.8 °F 51.8 °F 100% 30.12 in - ESE 2.2 mph - N/A   Clear
5:45 AM 51.8 °F 51.8 °F 100% 30.12 in - WNW 2.2 mph - N/A   Clear
6:15 AM 55.4 °F 53.6 °F 94% 30.12 in - NW 2.2 mph - N/A   Clear
6:45 AM - - N/A% - 6.2 mi Variable 4.5 mph - N/A   Clear
7:15 AM 59.0 °F 55.4 °F 88% 30.15 in - NNW 4.5 mph - N/A   Clear
7:45 AM 59.0 °F 53.6 °F 82% 30.15 in - NNW 4.5 mph - N/A   Clear
8:15 AM 62.6 °F 55.4 °F 77% 30.15 in - North 4.5 mph - N/A   Clear
8:45 AM 62.6 °F 53.6 °F 72% 30.15 in - North 2.2 mph - N/A   Clear
9:15 AM 64.4 °F 55.4 °F 73% 30.15 in - WNW 4.5 mph - N/A   Clear
9:45 AM - - N/A% - 6.2 mi Variable 4.5 mph - N/A   Clear
10:15 AM 69.8 °F 57.2 °F 64% 30.15 in - NW 6.7 mph - N/A   Clear
10:45 AM 69.8 °F 57.2 °F 64% 30.15 in - NNW 6.7 mph - N/A   Clear
11:15 AM 69.8 °F 55.4 °F 60% 30.12 in 6.2 mi NNW 6.7 mph - N/A   Partly Cloudy
11:45 AM 71.6 °F 55.4 °F 57% 30.12 in 6.2 mi NNW 6.7 mph - N/A   Partly Cloudy
12:15 PM 73.4 °F 57.2 °F 57% 30.12 in 6.2 mi NNW 6.7 mph - N/A   Partly Cloudy
12:45 PM 73.4 °F 57.2 °F 57% 30.12 in 6.2 mi North 6.7 mph - N/A   Partly Cloudy
1:15 PM 75.2 °F 55.4 °F 50% 30.12 in 6.2 mi North 6.7 mph - N/A   Partly Cloudy
1:45 PM 75.2 °F 55.4 °F 50% 30.09 in 6.2 mi NE 4.5 mph - N/A   Partly Cloudy
2:15 PM 75.2 °F 53.6 °F 47% 30.09 in - NNE 6.7 mph - N/A   Clear
2:45 PM 75.2 °F 53.6 °F 47% 30.09 in - NNE 6.7 mph - N/A   Clear
3:15 PM 75.2 °F 51.8 °F 44% 30.09 in - NE 4.5 mph - N/A   Clear
3:45 PM - - N/A% - - Variable 4.5 mph - N/A   Clear
4:15 PM 77.0 °F 51.8 °F 41% 30.06 in - NE 4.5 mph - N/A   Clear
4:45 PM 77.0 °F 51.8 °F 41% 30.06 in - North 4.5 mph - N/A   Clear
5:15 PM 77.0 °F 55.4 °F 47% 30.06 in - NE 2.2 mph - N/A   Clear
5:45 PM 77.0 °F 55.4 °F 47% 30.04 in - NNW 4.5 mph - N/A   Clear
6:15 PM 77.0 °F 51.8 °F 41% 30.04 in - NW 2.2 mph - N/A   Clear
6:45 PM 77.0 °F 53.6 °F 44% 30.04 in - North 4.5 mph - N/A   Clear
7:15 PM 78.8 °F 55.4 °F 44% 30.04 in - Calm Calm - N/A   Clear
7:45 PM 75.2 °F 59.0 °F 57% 30.04 in - Calm Calm - N/A   Clear
8:15 PM 71.6 °F 59.0 °F 64% 30.04 in - Calm Calm - N/A   Clear
8:45 PM 68.0 °F 60.8 °F 78% 30.04 in - Calm Calm - N/A   Clear
9:15 PM 66.2 °F 62.6 °F 88% 30.04 in - SSE 2.2 mph - N/A   Clear
9:45 PM 62.6 °F 60.8 °F 94% 30.04 in - SE 4.5 mph - N/A   Clear
10:15 PM 60.8 °F 59.0 °F 94% 30.04 in - SE 2.2 mph - N/A   Clear
10:45 PM 59.0 °F 59.0 °F 100% 30.04 in - SSE 4.5 mph - N/A   Clear
11:15 PM 59.0 °F 55.4 °F 88% 30.04 in - SE 2.2 mph - N/A   Clear
11:45 PM 57.2 °F 55.4 °F 94% 30.04 in - Calm Calm - N/A   Clear